VLG6UP LECO-LEBL

Flight info

Callsign VLG6UP
Flight time 1h 18m
Altitude 32000
Route ROXER DCT LASKU DCT RONSI DCT OBETO M190 BLV M601 RONNY DCT SURCO M601 GRAUS
Aircraft A321/M-SDFGHILORVWXY/LB1

Departure

Time 2026-05-04 10:16
Airport A Coruña Airport (LECO)

Arrival

Time 2026-05-04 11:34
Airport Josep Tarradellas Barcelona-El Prat Airport (LEBL)
Time Latitude Longitude Altitude Speed Heading
2026-05-04 09:43 43.30161 -8.38078 274 ft 0 kts 326°
2026-05-04 10:08 43.30147 -8.38063 276 ft 4 kts 324°
2026-05-04 10:08 43.30124 -8.38048 278 ft 4 kts 357°
2026-05-04 10:08 43.30099 -8.38055 279 ft 4 kts 30°
2026-05-04 10:08 43.30089 -8.38063 278 ft 1 kts 32°
2026-05-04 10:09 43.30089 -8.38064 278 ft 0 kts 32°
2026-05-04 10:10 43.30091 -8.38062 274 ft 1 kts 32°
2026-05-04 10:11 43.30103 -8.38051 274 ft 3 kts 32°
2026-05-04 10:11 43.30124 -8.38032 274 ft 5 kts 32°
2026-05-04 10:11 43.30156 -8.38005 274 ft 6 kts 32°
2026-05-04 10:11 43.30198 -8.37972 276 ft 8 kts 31°
2026-05-04 10:12 43.30249 -8.37930 274 ft 9 kts 31°
2026-05-04 10:12 43.30260 -8.37861 273 ft 9 kts 110°
2026-05-04 10:12 43.30233 -8.37776 273 ft 10 kts 110°
2026-05-04 10:12 43.30255 -8.37688 272 ft 12 kts 40°
2026-05-04 10:13 43.30330 -8.37626 271 ft 13 kts 34°
2026-05-04 10:13 43.30410 -8.37559 273 ft 14 kts 30°
2026-05-04 10:13 43.30494 -8.37487 273 ft 15 kts 32°
2026-05-04 10:13 43.30584 -8.37416 274 ft 15 kts 29°
2026-05-04 10:14 43.30675 -8.37341 275 ft 16 kts 31°
2026-05-04 10:14 43.30772 -8.37262 274 ft 14 kts 30°
2026-05-04 10:16 43.29472 -8.38334 354 ft 166 kts 212°
2026-05-04 10:16 43.28494 -8.39110 1114 ft 161 kts 205°
2026-05-04 10:16 43.27390 -8.39297 1902 ft 163 kts 172°
2026-05-04 10:16 43.26328 -8.38640 2379 ft 180 kts 141°
2026-05-04 10:17 43.25643 -8.37078 2644 ft 208 kts 102°
2026-05-04 10:17 43.25840 -8.35069 3030 ft 223 kts 60°
2026-05-04 10:19 43.34495 -8.26015 7105 ft 244 kts 67°
2026-05-04 10:19 43.35031 -8.23665 7296 ft 270 kts 73°
2026-05-04 10:19 43.35558 -8.21087 7737 ft 287 kts 73°
2026-05-04 10:19 43.36093 -8.18407 8486 ft 293 kts 73°
2026-05-04 10:20 43.36461 -8.15633 9290 ft 299 kts 88°
2026-05-04 10:20 43.36254 -8.12822 10116 ft 303 kts 104°
2026-05-04 10:20 43.35701 -8.09945 10544 ft 323 kts 105°
2026-05-04 10:20 43.35105 -8.06859 10799 ft 345 kts 105°
2026-05-04 10:21 43.34482 -8.03620 11367 ft 354 kts 105°
2026-05-04 10:21 43.33850 -8.00326 12046 ft 359 kts 105°
2026-05-04 10:21 43.33210 -7.96996 12760 ft 362 kts 105°
2026-05-04 10:21 43.32566 -7.93630 13448 ft 366 kts 105°
2026-05-04 10:22 43.31257 -7.86795 14749 ft 374 kts 105°
2026-05-04 10:22 43.30588 -7.83330 15383 ft 377 kts 105°
2026-05-04 10:22 43.29913 -7.79834 16016 ft 381 kts 105°
2026-05-04 10:23 43.29233 -7.76303 16650 ft 385 kts 105°
2026-05-04 10:23 43.28546 -7.72737 17284 ft 388 kts 105°
2026-05-04 10:25 43.23477 -7.46818 21253 ft 415 kts 107°
2026-05-04 10:25 43.22721 -7.42974 21782 ft 419 kts 107°
2026-05-04 10:25 43.22022 -7.39074 22297 ft 424 kts 101°
2026-05-04 10:25 43.21734 -7.35022 22798 ft 430 kts 91°
2026-05-04 10:26 43.21926 -7.30918 23280 ft 434 kts 81°
2026-05-04 10:26 43.22429 -7.26872 23733 ft 438 kts 80°
2026-05-04 10:26 43.22955 -7.22746 24149 ft 441 kts 80°
2026-05-04 10:26 43.23488 -7.18592 24584 ft 443 kts 80°
2026-05-04 10:27 43.24020 -7.14419 25039 ft 445 kts 80°
2026-05-04 10:27 43.24551 -7.10228 25456 ft 447 kts 80°
2026-05-04 10:27 43.25084 -7.06017 25875 ft 450 kts 80°
2026-05-04 10:27 43.25619 -7.01785 26284 ft 452 kts 80°
2026-05-04 10:28 43.26156 -6.97519 26680 ft 454 kts 81°
2026-05-04 10:28 43.26691 -6.93237 27078 ft 457 kts 81°
2026-05-04 10:28 43.27228 -6.88933 27471 ft 459 kts 81°
2026-05-04 10:28 43.27766 -6.84606 27865 ft 461 kts 81°
2026-05-04 10:29 43.28304 -6.80262 28266 ft 463 kts 81°
2026-05-04 10:29 43.28843 -6.75900 28684 ft 465 kts 81°
2026-05-04 10:29 43.29381 -6.71516 29044 ft 467 kts 81°
2026-05-04 10:29 43.29920 -6.67111 29403 ft 469 kts 81°
2026-05-04 10:30 43.30461 -6.62680 29754 ft 472 kts 81°
2026-05-04 10:30 43.31003 -6.58229 30087 ft 474 kts 82°
2026-05-04 10:30 43.31545 -6.53748 30370 ft 477 kts 82°
2026-05-04 10:30 43.32090 -6.49247 30660 ft 479 kts 82°
2026-05-04 10:31 43.32636 -6.44721 30940 ft 482 kts 81°
2026-05-04 10:31 43.33182 -6.40174 31255 ft 483 kts 81°
2026-05-04 10:32 43.36355 -6.13364 32052 ft 463 kts 82°
2026-05-04 10:33 43.37377 -6.04639 32056 ft 461 kts 82°
2026-05-04 10:33 43.38383 -5.96005 32056 ft 460 kts 82°
2026-05-04 10:34 43.39386 -5.87321 32057 ft 460 kts 82°
2026-05-04 10:34 43.40372 -5.78639 32054 ft 460 kts 82°
2026-05-04 10:35 43.41361 -5.69947 32055 ft 460 kts 82°
2026-05-04 10:35 43.42347 -5.61258 32065 ft 460 kts 83°
2026-05-04 10:36 43.43318 -5.52574 32068 ft 459 kts 83°
2026-05-04 10:36 43.44287 -5.43889 32065 ft 459 kts 83°
2026-05-04 10:37 43.45088 -5.36675 32061 ft 459 kts 83°
2026-05-04 10:37 43.46042 -5.27991 32058 ft 459 kts 83°
2026-05-04 10:39 43.49323 -4.97637 32067 ft 458 kts 83°
2026-05-04 10:40 43.50215 -4.88964 32052 ft 456 kts 88°
2026-05-04 10:40 43.50040 -4.80300 32056 ft 452 kts 97°
2026-05-04 10:41 43.49578 -4.71662 32055 ft 452 kts 97°
2026-05-04 10:41 43.49129 -4.63019 32056 ft 452 kts 97°
2026-05-04 10:42 43.48674 -4.54442 32041 ft 452 kts 98°
2026-05-04 10:42 43.48205 -4.45807 32048 ft 452 kts 98°
2026-05-04 10:43 43.47788 -4.37162 32053 ft 453 kts 97°
2026-05-04 10:45 43.45752 -4.02666 32059 ft 452 kts 98°
2026-05-04 10:45 43.45217 -3.94053 32061 ft 452 kts 98°
2026-05-04 10:46 43.44293 -3.85552 32062 ft 448 kts 105°
2026-05-04 10:46 43.43050 -3.77144 32046 ft 448 kts 105°
2026-05-04 10:47 43.41815 -3.68741 32051 ft 448 kts 105°
2026-05-04 10:47 43.40572 -3.60342 32052 ft 448 kts 105°
2026-05-04 10:49 43.35542 -3.26849 32051 ft 448 kts 106°
2026-05-04 10:50 43.34298 -3.18467 32057 ft 448 kts 106°
2026-05-04 10:51 43.29074 -2.89672 32051 ft 433 kts 125°
2026-05-04 10:52 43.27496 -2.86173 32055 ft 431 kts 128°
2026-05-04 10:52 43.24279 -2.79238 32046 ft 431 kts 128°
2026-05-04 10:54 43.11440 -2.51544 32049 ft 430 kts 128°
2026-05-04 10:56 42.98568 -2.24050 31991 ft 429 kts 129°
2026-05-04 10:57 42.95359 -2.17182 32001 ft 429 kts 128°
2026-05-04 10:57 42.92158 -2.10293 32000 ft 430 kts 128°
2026-05-04 10:58 42.88954 -2.03407 32006 ft 430 kts 128°
2026-05-04 10:58 42.85740 -1.96528 31998 ft 430 kts 129°
2026-05-04 10:59 42.82525 -1.89661 31961 ft 430 kts 129°
2026-05-04 10:59 42.79297 -1.82792 31948 ft 431 kts 129°
2026-05-04 11:00 42.76055 -1.75916 31947 ft 432 kts 129°
2026-05-04 11:02 42.65042 -1.46480 31949 ft 439 kts 122°
2026-05-04 11:05 42.44944 -0.90127 31961 ft 445 kts 123°
2026-05-04 11:06 42.42225 -0.82606 31963 ft 445 kts 124°
2026-05-04 11:06 42.39504 -0.75074 31932 ft 446 kts 124°
2026-05-04 11:10 42.20264 -0.22384 31988 ft 447 kts 125°
2026-05-04 11:12 42.09148 0.07603 31941 ft 448 kts 125°
2026-05-04 11:12 42.07754 0.11343 31485 ft 447 kts 125°
2026-05-04 11:12 42.06364 0.15072 30971 ft 444 kts 125°
2026-05-04 11:13 42.04985 0.18773 30479 ft 440 kts 125°
2026-05-04 11:13 42.03618 0.22437 29987 ft 437 kts 125°
2026-05-04 11:13 42.02258 0.26076 29470 ft 433 kts 125°
2026-05-04 11:13 42.00911 0.29668 29003 ft 428 kts 125°
2026-05-04 11:14 41.99573 0.33223 28538 ft 424 kts 125°
2026-05-04 11:14 41.98256 0.36739 28059 ft 420 kts 123°
2026-05-04 11:14 41.97192 0.40416 27651 ft 422 kts 116°
2026-05-04 11:16 41.90633 0.65946 24960 ft 404 kts 116°
2026-05-04 11:16 41.89713 0.69495 24589 ft 401 kts 116°
2026-05-04 11:16 41.88798 0.73022 24215 ft 398 kts 116°
2026-05-04 11:17 41.87903 0.76472 23833 ft 395 kts 116°
2026-05-04 11:17 41.87003 0.79944 23456 ft 393 kts 115°
2026-05-04 11:19 41.80799 1.03669 20912 ft 377 kts 115°
2026-05-04 11:19 41.79926 1.06976 20557 ft 375 kts 115°
2026-05-04 11:19 41.79063 1.10258 20212 ft 373 kts 114°
2026-05-04 11:19 41.78204 1.13526 19855 ft 371 kts 114°
2026-05-04 11:20 41.77346 1.16781 19389 ft 369 kts 114°
2026-05-04 11:20 41.76491 1.20014 18958 ft 367 kts 114°
2026-05-04 11:20 41.75639 1.23233 18545 ft 366 kts 114°
2026-05-04 11:20 41.74789 1.26443 18098 ft 365 kts 114°
2026-05-04 11:22 41.68989 1.48240 15177 ft 345 kts 114°
2026-05-04 11:22 41.68185 1.51245 14784 ft 342 kts 114°
2026-05-04 11:23 41.67383 1.54237 14372 ft 340 kts 114°
2026-05-04 11:23 41.66587 1.57206 13982 ft 337 kts 114°
2026-05-04 11:24 41.61928 1.74491 11635 ft 323 kts 114°
2026-05-04 11:25 41.61169 1.77306 11268 ft 321 kts 114°
2026-05-04 11:25 41.60412 1.80111 10882 ft 321 kts 114°
2026-05-04 11:25 41.59657 1.82905 10516 ft 319 kts 114°
2026-05-04 11:26 41.58170 1.88395 10017 ft 306 kts 114°
2026-05-04 11:27 41.53237 2.06385 7638 ft 289 kts 113°
2026-05-04 11:28 41.52549 2.08891 7285 ft 287 kts 112°
2026-05-04 11:28 41.52153 2.10580 7038 ft 288 kts 109°
2026-05-04 11:28 41.51322 2.12968 6626 ft 283 kts 131°
2026-05-04 11:28 41.49950 2.14814 6214 ft 281 kts 141°
2026-05-04 11:29 41.48476 2.16534 5782 ft 282 kts 142°
2026-05-04 11:29 41.46982 2.18227 5344 ft 282 kts 144°
2026-05-04 11:29 41.45418 2.19769 4903 ft 275 kts 147°
2026-05-04 11:29 41.43899 2.21199 4480 ft 260 kts 147°
2026-05-04 11:31 41.34600 2.21858 1869 ft 167 kts 232°
2026-05-04 11:33 41.31565 2.13253 475 ft 143 kts 244°
2026-05-04 11:33 41.31148 2.12043 318 ft 144 kts 244°
2026-05-04 11:33 41.30736 2.10842 123 ft 142 kts 242°
2026-05-04 11:34 41.30331 2.09667 22 ft 131 kts 243°
2026-05-04 11:34 41.30009 2.08739 22 ft 87 kts 245°
2026-05-04 11:34 41.29830 2.08220 22 ft 37 kts 245°
2026-05-04 11:34 41.29738 2.08002 17 ft 23 kts 230°
2026-05-04 11:35 41.29668 2.07899 16 ft 14 kts 219°
2026-05-04 11:35 41.29597 2.07825 16 ft 10 kts 217°
2026-05-04 11:35 41.29536 2.07774 16 ft 11 kts 212°
2026-05-04 11:35 41.29475 2.07711 17 ft 12 kts 231°
2026-05-04 11:36 41.29436 2.07606 17 ft 13 kts 248°
2026-05-04 11:36 41.29389 2.07536 16 ft 11 kts 183°
2026-05-04 11:36 41.29323 2.07565 16 ft 9 kts 154°
2026-05-04 11:36 41.29266 2.07600 19 ft 9 kts 155°
2026-05-04 11:37 41.29209 2.07635 20 ft 9 kts 155°
2026-05-04 11:37 41.29170 2.07658 19 ft 5 kts 155°
2026-05-04 11:37 41.29157 2.07702 19 ft 5 kts 78°
2026-05-04 11:37 41.29163 2.07740 19 ft 3 kts 110°
2026-05-04 11:38 41.29146 2.07765 19 ft 5 kts 145°
2026-05-04 11:38 41.29118 2.07783 19 ft 4 kts 155°
2026-05-04 11:38 41.29107 2.07790 19 ft 1 kts 155°
2026-05-04 11:38 41.29101 2.07794 19 ft 0 kts 155°